Weather History for Batman, Turkey

Change the Weather History Date:

Friday, May 11, 2012

  Actual Average (LTCC) Record (LTCC)
Temperature  
Mean Temperature 72 °F -  
Max Temperature 86 °F 77 °F 87 °F (2003)
Min Temperature 59 °F 50 °F 44 °F (2002)
Cooling Degree Days 8    
Growing Degree Days 22 (Base 50)    
Moisture  
Dew Point 52 °F    
Average Humidity 58    
Maximum Humidity 94    
Minimum Humidity 18    
Precipitation  
Precipitation 0.00 in - - ()
Sea Level Pressure  
Sea Level Pressure 29.95 in    
Wind  
Wind Speed 4 mph ()    
Max Wind Speed 9 mph    
Max Gust Speed -    
Visibility 6.2 miles    
Events      
Averages and records for this station are not official NWS values.
T = Trace of Precipitation, MM = Missing Value Source: Averaged Metar Reports

Daily Weather History Graph

Daily Weather History Graph

Search for Another Location

Airport:

Trip Planner

Search our weather history database for the weather conditions in past years. The results will help you decide how hot, cold, wet, or windy it might be!

Date:

Astronomy

May. 11, 2012 Rise Set
Actual Time 5:08 AM EEST 7:15 PM EEST
Civil Twilight 4:39 AM EEST 7:44 PM EEST
Nautical Twilight 4:04 AM EEST 8:20 PM EEST
Astronomical Twilight 3:25 AM EEST 8:59 PM EEST
Moon No Moon Rise 10:16 AM EEST (5/11)
Length of Visible Light 15h 05m
Length of Day
14h 06m
Waning Gibbous, 66% of the Moon is Illuminated
May 11
Waning Gibbous
May 13
Last Quarter
May 21
New
May 28
First Quarter
Jun 4
Full

Hourly Weather History & Observations

Time (EEST) Temp. Heat Index Dew Point Humidity Pressure Visibility Wind Dir Wind Speed Gust Speed Precip Events Conditions
12:20 AM 62.6 °F - 57.2 °F 82% 30.01 in 6.2 mi ENE 5.8 mph - N/A   Mostly Cloudy
12:50 AM 62.6 °F - 57.2 °F 82% 29.98 in 6.2 mi NNE 8.1 mph - N/A   Mostly Cloudy
1:20 AM 62.6 °F - 57.2 °F 82% 29.98 in 6.2 mi North 5.8 mph - N/A   Mostly Cloudy
1:50 AM 62.6 °F - 57.2 °F 82% 29.98 in 6.2 mi Variable 2.3 mph - N/A   Mostly Cloudy
2:20 AM 62.6 °F - 57.2 °F 82% 29.98 in 6.2 mi Variable 2.3 mph - N/A   Mostly Cloudy
2:50 AM 60.8 °F - 57.2 °F 88% 29.98 in 6.2 mi SW 4.6 mph - N/A   Mostly Cloudy
3:20 AM 60.8 °F - 57.2 °F 88% 29.98 in 6.2 mi South 6.9 mph - N/A   Mostly Cloudy
3:50 AM 60.8 °F - 55.4 °F 82% 29.98 in 6.2 mi SW 9.2 mph - N/A   Mostly Cloudy
4:20 AM 59.0 °F - 57.2 °F 94% 29.98 in 6.2 mi Variable 2.3 mph - N/A   Mostly Cloudy
4:50 AM 59.0 °F - 57.2 °F 94% 29.98 in 6.2 mi South 4.6 mph - N/A   Mostly Cloudy
5:20 AM 59.0 °F - 55.4 °F 88% 29.98 in 6.2 mi Calm Calm - N/A   Scattered Clouds
5:50 AM 59.0 °F - 55.4 °F 88% 29.98 in 6.2 mi Calm Calm - N/A   Partly Cloudy
6:20 AM 60.8 °F - 57.2 °F 88% 29.98 in - WSW 1.2 mph - N/A   Clear
6:50 AM 60.8 °F - 57.2 °F 88% 29.98 in - WSW 3.5 mph - N/A   Clear
7:20 AM 64.4 °F - 57.2 °F 77% 29.98 in - WSW 4.6 mph - N/A   Clear
7:50 AM 66.2 °F - 57.2 °F 73% 30.01 in - WSW 2.3 mph - N/A   Clear
8:20 AM 66.2 °F - 55.4 °F 68% 30.01 in - SW 5.8 mph - N/A   Clear
8:50 AM 68.0 °F - 55.4 °F 64% 30.01 in - WSW 6.9 mph - N/A   Clear
9:20 AM 69.8 °F - 59.0 °F 68% 29.98 in - SW 4.6 mph - N/A   Clear
9:50 AM 73.4 °F - 53.6 °F 50% 29.98 in - WSW 4.6 mph - N/A   Clear
10:20 AM 73.4 °F - 53.6 °F 50% 29.98 in - SW 6.9 mph - N/A   Clear
10:50 AM 77.0 °F - 51.8 °F 41% 29.98 in - SSW 4.6 mph - N/A   Clear
11:20 AM 78.8 °F - 51.8 °F 39% 29.98 in - WSW 4.6 mph - N/A   Clear
11:50 AM 80.6 °F - 51.8 °F 37% 29.98 in - Variable 3.5 mph - N/A   Clear
12:20 PM 80.6 °F 80.3 °F 53.6 °F 39% 29.98 in - ENE 3.5 mph - N/A   Clear
12:50 PM 82.4 °F - 51.8 °F 35% 29.95 in 6.2 mi East 3.5 mph - N/A   Partly Cloudy
1:20 PM 84.2 °F - 51.8 °F 33% 29.95 in 6.2 mi Variable 2.3 mph - N/A   Partly Cloudy
1:50 PM 86.0 °F - 48.2 °F 27% 29.95 in 6.2 mi Variable 2.3 mph - N/A   Partly Cloudy
2:20 PM 84.2 °F - 51.8 °F 33% 29.95 in 6.2 mi Variable 3.5 mph - N/A   Partly Cloudy
2:50 PM 86.0 °F - 46.4 °F 25% 29.92 in 6.2 mi Variable 3.5 mph - N/A   Partly Cloudy
3:20 PM 86.0 °F - 42.8 °F 22% 29.92 in 6.2 mi WSW 4.6 mph - N/A   Partly Cloudy
3:50 PM 86.0 °F - 39.2 °F 19% 29.92 in 6.2 mi NW 5.8 mph - N/A   Partly Cloudy
4:20 PM 86.0 °F - 41.0 °F 20% 29.92 in 6.2 mi West 5.8 mph - N/A   Partly Cloudy
4:50 PM 86.0 °F - 37.4 °F 18% 29.92 in 6.2 mi WNW 6.9 mph - N/A   Partly Cloudy
5:20 PM 86.0 °F - 42.8 °F 22% 29.92 in - NW 4.6 mph - N/A   Clear
5:50 PM 84.2 °F - 46.4 °F 27% 29.89 in - NNW 5.8 mph - N/A   Clear
6:20 PM 82.4 °F - 46.4 °F 28% 29.89 in - NNW 4.6 mph - N/A   Clear
6:50 PM 77.0 °F - 48.2 °F 36% 29.89 in - NNW 3.5 mph - N/A   Clear
7:20 PM 71.6 °F - 51.8 °F 50% 29.89 in - NNE 4.6 mph - N/A   Clear
7:50 PM 69.8 °F - 51.8 °F 53% 29.92 in - NNE 4.6 mph - N/A   Clear
8:20 PM 66.2 °F - 51.8 °F 60% 29.92 in - NNE 6.9 mph - N/A   Clear
8:50 PM 66.2 °F - 51.8 °F 60% 29.92 in - ENE 6.9 mph - N/A   Clear
9:20 PM 66.2 °F - 51.8 °F 60% 29.92 in - ENE 6.9 mph - N/A   Clear
9:50 PM 64.4 °F - 51.8 °F 64% 29.92 in - NNE 6.9 mph - N/A   Clear
10:20 PM 60.8 °F - 51.8 °F 72% 29.92 in - North 4.6 mph - N/A   Clear
10:50 PM 62.6 °F - 53.6 °F 72% 29.92 in - NE 4.6 mph - N/A   Clear
11:20 PM 60.8 °F - 53.6 °F 77% 29.92 in - North 3.5 mph - N/A   Clear
11:50 PM 59.0 °F - 51.8 °F 77% 29.92 in - NNE 2.3 mph - N/A   Clear